User: anonymous   Login
Location: Unspecified
(0.0000°N, 0.0000°E)
Time: 03:20:46
(UTC+00:00)
Language:

TBA - TO BE ASSIGNED - Orbit

View from above orbital plane
View from above orbital plane
View from above satellite
View from above satellite

Ground track
Ground track

The orbit is defined by the following mean orbital elements,

1 68958U          26145.58335647 +.00000000 +00000-0 -22444-1 0 00006
2 68958  53.1593 268.0290 0001147  67.9884  55.9001 15.64369383    04
Epoch (UTC): 25 May 2026 14:00:01
Eccentricity: 0.0001147
inclination: 53.1593°
perigee height: 374 km
apogee height: 376 km
right ascension of ascending node: 268.0290°
argument of perigee: 67.9884°
revolutions per day: 15.64369383
mean anomaly at epoch: 55.9001°

The dashed part of the orbit path shows where the satellite is in the earth's shadow,  

DLR